Location: Caltech
(34.1382°N, 118.1253°W)
Time: 23:11:59
(UTC-07:00)

FENGYUN 3A - Visible Passes

Search period start: 28 May 2015 00:00
Search period end: 07 June 2015 00:00
Orbit: 820 x 833 km, 98.5° (Epoch: 28 May)

Date Brightness Start Highest point End Pass type
(mag) Time Alt. Az. Time Alt. Az. Time Alt. Az.
28 May 4.4 20:40:45 10° SE 20:45:36 37° ENE 20:50:34 10° N visible
28 May 5.6 22:22:13 12° SW 22:25:59 23° W 22:30:08 10° NW visible
29 May 4.9 20:22:42 10° ESE 20:26:56 25° ENE 20:31:19 10° NNE visible
29 May 4.9 22:03:08 15° SSW 22:07:01 35° W 22:11:55 10° NNW visible
30 May 4.2 21:44:03 17° S 21:48:09 54° W 21:53:26 10° NNW visible
31 May 3.7 21:24:58 16° S 21:29:19 83° WSW 21:34:45 10° NNW visible
01 Jun 3.7 21:05:53 14° SSE 21:10:32 66° ENE 21:15:55 10° N visible
01 Jun 6.1 22:48:56 10° WSW 22:51:22 13° W 22:53:26 10° WNW visible
02 Jun 4.2 20:46:48 10° SE 20:51:48 43° ENE 20:56:55 10° N visible
02 Jun 5.8 22:28:21 10° SW 22:32:18 20° W 22:36:05 10° NW visible
03 Jun 4.7 20:28:37 10° SE 20:33:07 29° ENE 20:37:45 10° N visible
03 Jun 5.2 22:09:12 13° SSW 22:13:19 30° W 22:18:00 10° NW visible
04 Jun 4.5 21:50:07 15° S 21:54:24 46° W 21:59:35 10° NNW visible
05 Jun 3.8 21:31:02 15° S 21:35:33 71° WSW 21:40:58 10° NNW visible
06 Jun 3.6 21:11:58 13° SSE 21:16:46 76° ENE 21:22:12 10° N visible
06 Jun 6.3 22:56:34 10° W 22:57:43 10° W 22:58:24 10° W visible
